Date String (YYYY-MM-DD hh:mm:ss) UTC,Instrument flags,Ambient pressure (hPa),Sample flow (lpm),Bypass flow (lpm),Sample temperature (°C),Ambient temperature (°C),ASC tube jacket temperature (°C),LED temperature (°C),Box temperature (°C),Sample RH (%),Span deviation,Mass concentration (μg/m³),Mass concentration (μg/m³),Mass concentration (μg/m³)
DateTimeUTC,F1_M11,P_M11,Q1_M11,Q2_M11,T1_M11,T2_M11,T3_M11,T4_M11,T5_M11,U1_M11,ZSPAN_M11,X0_M11,X2_M11,X1_M11
2021-09-13 23:00:00,,0825.7,4.99,0.00,29.3,25.7,00.0,38.4,30.5,24.6,0000.0,0025.10,0005.10,0003.31
2021-09-13 23:01:00,,0825.7,4.99,0.00,29.2,26.0,00.0,38.4,30.6,24.7,0000.0,0025.48,0005.11,0003.33
2021-09-13 23:02:00,,0825.6,5.01,0.00,29.1,26.4,00.0,38.3,30.7,25.0,0000.0,0023.45,0005.08,0003.34
2021-09-13 23:03:00,,0825.7,5.00,0.00,29.1,26.9,00.0,38.3,30.8,24.4,0000.0,0023.63,0005.14,0003.35
2021-09-13 23:04:00,,0825.7,4.99,0.00,29.2,27.3,00.0,38.3,30.9,25.2,0000.0,0023.50,0005.24,0003.36
2021-09-13 23:05:00,,0825.7,5.00,0.00,29.2,27.6,00.0,38.3,31.0,25.4,0000.0,0023.91,0005.31,0003.36
2021-09-13 23:06:00,,0825.7,4.99,0.00,29.2,27.9,00.0,38.3,31.1,25.6,0000.0,0023.89,0005.33,0003.37
2021-09-13 23:07:00,,0825.8,5.01,0.00,29.3,28.2,00.0,38.3,31.2,25.0,0000.0,0022.18,0005.35,0003.38
2021-09-13 23:08:00,,0825.9,5.00,0.00,29.4,28.4,00.0,38.3,31.3,24.5,0000.0,0021.08,0005.33,0003.37
2021-09-13 23:09:00,,0826.0,4.99,0.00,29.4,28.5,00.0,38.3,31.3,24.5,0000.0,0021.26,0005.34,0003.37
2021-09-13 23:10:00,,0825.9,5.00,0.00,29.5,28.7,00.0,38.4,31.4,24.6,0000.0,0020.97,0005.34,0003.36
2021-09-13 23:11:00,,0825.8,5.01,0.00,29.5,28.4,00.0,38.4,31.3,24.4,0000.0,0019.70,0005.27,0003.34
2021-09-13 23:12:00,,0825.8,4.99,0.00,29.4,26.6,00.0,38.4,30.9,24.7,0000.0,0018.81,0005.25,0003.32
2021-09-13 23:13:00,,0825.8,5.00,0.00,29.3,25.8,00.0,38.4,30.7,24.9,0000.0,0020.32,0005.25,0003.32
2021-09-13 23:14:00,,0826.0,5.00,0.00,29.2,26.0,00.0,38.4,30.7,25.1,0000.0,0021.63,0005.19,0003.31
2021-09-13 23:15:00,,0826.2,5.01,0.00,29.2,26.5,00.0,38.3,30.8,25.1,0000.0,0022.31,0005.15,0003.29
2021-09-13 23:16:00,,0826.0,5.00,0.00,29.2,26.9,00.0,38.3,30.9,25.1,0000.0,0021.35,0005.08,0003.28
2021-09-13 23:17:00,,0825.8,5.01,0.00,29.2,27.4,00.0,38.3,31.0,24.9,0000.0,0020.43,0005.05,0003.27
2021-09-13 23:18:00,,0825.8,4.99,0.00,29.2,27.7,00.0,38.3,31.1,24.7,0000.0,0020.49,0005.09,0003.26
2021-09-13 23:19:00,,0825.7,5.02,0.00,29.3,28.0,00.0,38.3,31.1,24.6,0000.0,0020.80,0005.15,0003.27
2021-09-13 23:20:00,,0825.7,4.99,0.00,29.3,28.2,00.0,38.3,31.2,24.6,0000.0,0020.55,0005.18,0003.27
2021-09-13 23:21:00,,0825.7,5.01,0.00,29.4,28.4,00.0,38.3,31.3,24.5,0000.0,0020.85,0005.21,0003.27
2021-09-13 23:22:00,,0825.7,4.99,0.00,29.4,28.6,00.0,38.4,31.3,24.1,0000.0,0020.54,0005.17,0003.28
2021-09-13 23:23:00,,0825.6,4.99,0.00,29.5,28.5,00.0,38.4,31.4,24.2,0000.0,0021.34,0005.18,0003.27
2021-09-13 23:24:00,,0825.6,5.02,0.00,29.4,27.1,00.0,38.4,31.0,24.2,0000.0,0021.76,0005.14,0003.27
2021-09-13 23:25:00,,0825.6,4.99,0.00,29.3,25.7,00.0,38.4,30.6,24.5,0000.0,0019.80,0005.11,0003.26
2021-09-13 23:26:00,,0825.6,5.00,0.00,29.2,25.8,00.0,38.4,30.6,24.9,0000.0,0019.29,0005.07,0003.26
2021-09-13 23:27:00,,0825.6,5.01,0.00,29.1,26.3,00.0,38.3,30.7,25.0,0000.0,0019.78,0005.04,0003.27
2021-09-13 23:28:00,,0825.6,5.00,0.00,29.1,26.7,00.0,38.3,30.8,25.2,0000.0,0020.41,0005.09,0003.27
2021-09-13 23:29:00,,0825.6,4.98,0.00,29.1,27.2,00.0,38.3,30.9,25.1,0000.0,0021.27,0005.11,0003.27
2021-09-13 23:30:00,,0825.6,5.01,0.00,29.2,27.5,00.0,38.2,31.0,24.9,0000.0,0022.24,0005.10,0003.26
2021-09-13 23:31:00,,0825.6,4.99,0.00,29.2,27.8,00.0,38.3,31.1,24.8,0000.0,0023.04,0005.10,0003.25
2021-09-13 23:32:00,,0825.6,5.01,0.00,29.3,28.1,00.0,38.3,31.1,24.5,0000.0,0023.51,0005.04,0003.24
2021-09-13 23:33:00,,0825.6,5.00,0.00,29.3,28.3,00.0,38.3,31.2,24.4,0000.0,0023.57,0005.08,0003.24
2021-09-13 23:34:00,,0825.6,5.00,0.00,29.4,28.4,00.0,38.3,31.3,24.3,0000.0,0024.26,0005.06,0003.24
2021-09-13 23:35:00,,0825.6,5.01,0.00,29.4,28.6,00.0,38.3,31.3,24.1,0000.0,0023.41,0005.09,0003.24
2021-09-13 23:36:00,,0825.6,5.00,0.00,29.5,28.7,00.0,38.4,31.4,24.1,0000.0,0022.82,0005.14,0003.24
2021-09-13 23:37:00,,0825.6,5.00,0.00,29.5,27.7,00.0,38.4,31.1,23.9,0000.0,0024.23,0005.17,0003.24
2021-09-13 23:38:00,,0825.5,5.00,0.00,29.3,25.9,00.0,38.4,30.7,24.0,0000.0,0025.00,0005.21,0003.23
2021-09-13 23:39:00,,0825.4,5.00,0.00,29.2,25.7,00.0,38.3,30.6,24.1,0000.0,0024.75,0005.21,0003.21
2021-09-13 23:40:00,,0825.5,4.99,0.00,29.1,26.1,00.0,38.3,30.6,24.3,0000.0,0025.85,0005.13,0003.21
2021-09-13 23:41:00,,0825.5,5.00,0.00,29.1,26.6,00.0,38.3,30.7,24.3,0000.0,0026.10,0005.12,0003.21
2021-09-13 23:42:00,,0825.4,5.01,0.00,29.1,27.0,00.0,38.3,30.8,24.2,0000.0,0025.00,0005.08,0003.21
2021-09-13 23:43:00,,0825.5,4.99,0.00,29.1,27.4,00.0,38.2,30.9,24.3,0000.0,0024.12,0005.10,0003.20
2021-09-13 23:44:00,,0825.5,5.00,0.00,29.2,27.7,00.0,38.2,31.0,24.4,0000.0,0023.96,0005.16,0003.21
2021-09-13 23:45:00,,0825.5,5.00,0.00,29.2,28.0,00.0,38.3,31.1,24.2,0000.0,0023.90,0005.25,0003.22
2021-09-13 23:46:00,,0825.4,5.00,0.00,29.3,28.2,00.0,38.3,31.2,24.0,0000.0,0023.51,0005.23,0003.22
2021-09-13 23:47:00,,0825.5,4.99,0.00,29.3,28.4,00.0,38.3,31.2,24.1,0000.0,0023.56,0005.22,0003.22
2021-09-13 23:48:00,,0825.5,5.00,0.00,29.4,28.5,00.0,38.3,31.3,24.1,0000.0,0021.80,0005.14,0003.22
2021-09-13 23:49:00,,0825.5,5.00,0.00,29.4,28.6,00.0,38.3,31.4,23.9,0000.0,0021.01,0005.15,0003.24
2021-09-13 23:50:00,,0825.5,4.99,0.00,29.5,28.2,00.0,38.4,31.3,24.0,0000.0,0020.60,0005.18,0003.24
2021-09-13 23:51:00,,0825.5,5.01,0.00,29.3,26.4,00.0,38.4,30.8,23.7,0000.0,0018.74,0005.20,0003.24
2021-09-13 23:52:00,,0825.5,5.00,0.00,29.2,25.6,00.0,38.3,30.5,23.9,0000.0,0018.70,0005.23,0003.25
2021-09-13 23:53:00,,0825.5,5.01,0.00,29.1,25.9,00.0,38.3,30.6,24.0,0000.0,0019.04,0005.23,0003.25
2021-09-13 23:54:00,,0825.5,5.00,0.00,29.1,26.4,00.0,38.3,30.6,24.3,0000.0,0019.24,0005.22,0003.25
2021-09-13 23:55:00,,0825.5,5.01,0.00,29.1,26.8,00.0,38.2,30.8,24.3,0000.0,0018.78,0005.13,0003.24
2021-09-13 23:56:00,,0825.4,4.98,0.00,29.1,27.3,00.0,38.2,30.9,24.3,0000.0,0017.63,0005.05,0003.23
2021-09-13 23:57:00,,0825.5,5.02,0.00,29.1,27.6,00.0,38.2,30.9,24.1,0000.0,0017.39,0005.02,0003.23
2021-09-13 23:58:00,,0825.4,4.99,0.00,29.2,27.9,00.0,38.2,31.0,24.3,0000.0,0018.03,0005.00,0003.22
2021-09-13 23:59:00,,0825.5,5.01,0.00,29.2,28.1,00.0,38.2,31.1,24.4,0000.0,0018.59,0005.00,0003.23
